Wunstorf, Germany

05:43 AM CEST am 26. Juni 2017 (GMT +0200)
Wunstorf Air Base

Wetter Verlauf für ETNW - Juni, 2017

Change the Weather History Date:

Montag, Juni 19, 2017

  Actual Average (EDDV) Record (EDDV)
Temperature  
mittlereTemperatur 72 °F -  
Max. Temperatur 86 °F 70 °F 91 °F (2000)
Min.Temperatur 59 °F 53 °F 44 °F (1997)
Cooling Degree Days 8    
Growing Degree Days 22 (Base 50)    
Moisture  
Taupunkt 58 °F    
Average Humidity 58    
Maximum Humidity 94    
Minimum Humidity 26    
Niederschlag  
Niederschlag 0.00 inch - - ()
Luftdruck in Meereshöhe  
Luftdruck in Meereshöhe 30.14 inch    
Wind  
Windgeschwindigkeit 3 mph ()    
Max. Windgeschwindigkeit 8 mph    
Max Gust Speed -    
Sichtweite 10.1 Meilen    
Ereignisse      
Averages and records for this station are not official NWS values.
T = Trace of Precipitation, MM = Missing Value Source: Averaged Metar Reports

Daily Weather History Graph

Daily Weather History Graph

Search for Another Location

Airport or City:

Trip Planner

Search our weather history database for the weather conditions in past years. The results will help you decide how hot, cold, wet, or windy it might be!

Date:

Astronomie

Jun. 19, 2017 Aufgang Untergang
Genaue Zeit 04:59 CEST 21:48 CEST
Bürgerliche Dämmerung 04:09 CEST 22:38 CEST
Nautische Dämmerung 02:46 CEST 00:01 CEST
Astronomische Dämmerung Sun does not set Sun does not set
Mond 02:27 CEST (6/19) 15:38 CEST (6/19)
Länge des sichtbaren Lichts 18h 29m
Tageslänge
16h 49m
Letztes Viertel, 29% of the Moon is Illuminated
Jun 19
Letztes Viertel
Jun 24
Neu
Jul 1
Erstes Viertel
Jul 9
Vollmond
Jul 16
Letztes Viertel

Hourly Weather History & Observations

Zeit (CEST) Temp. Hitzeindex Taupunkt Feuchtigkeit Druck Sichtweite Wind Dir Windgeschwindigkeit Böengeschwindigkeit Precip Ereignisse Wetterzustand
12:00 AM 70 °F - 60 °F 61% 30.23 inch - Ost 4.5 mph - -  
12:20 AM 69.8 °F - 59.0 °F 68% 30.21 inch - Ost 2.3 mph - N/A   Unbekannt
1:00 AM 65 °F - 58 °F 71% 30.23 inch - Süd 2.2 mph - -  
1:20 AM 64.4 °F - 59.0 °F 83% 30.21 inch - Süd-Südwest 2.3 mph - N/A   Unbekannt
2:20 AM 62.6 °F - 59.0 °F 88% 30.21 inch - Ost-Südost 3.5 mph - N/A   Unbekannt
3:00 AM 61 °F - 58 °F 85% 30.22 inch - Südost 2.2 mph - -  
3:20 AM 60.8 °F - 59.0 °F 94% 30.21 inch - Süd 1.2 mph - N/A   Unbekannt
4:00 AM 60 °F - 57 °F 88% 30.22 inch - Ost-Südost 2.2 mph - -  
4:20 AM 59.0 °F - 57.2 °F 94% 30.21 inch - Ost-Südost 3.5 mph - N/A   Unbekannt
5:20 AM 59.0 °F - 57.2 °F 94% 30.18 inch - Süd 2.3 mph - N/A   Unbekannt
6:00 AM 59 °F - 57 °F 91% 30.21 inch 19 mi Süd 2.2 mph - -   Heiter
6:20 AM 62.6 °F - 59.0 °F 88% 30.21 inch 6.2 mi Südost 1.2 mph - N/A   Unbekannt
7:00 AM 65 °F - 59 °F 76% 30.21 inch 19 mi Ruhig Ruhig - -   Heiter
7:20 AM 66.2 °F - 60.8 °F 83% 30.18 inch 6.2 mi Ruhig Ruhig - N/A   Unbekannt
8:20 AM 71.6 °F - 60.8 °F 69% 30.18 inch 6.2 mi Wechselnd 2.3 mph - N/A   Unbekannt
9:00 AM 74 °F - 59 °F 50% 30.20 inch 19 mi Süd 2.2 mph - -  
9:20 AM 75.2 °F - 59.0 °F 57% 30.18 inch 6.2 mi Wechselnd 2.3 mph - N/A   Unbekannt
10:00 AM 77 °F - 59 °F 44% 30.19 inch 19 mi Südost 4.5 mph - -   Teils Wolkig
10:20 AM 77.0 °F - 59.0 °F 54% 30.18 inch 6.2 mi Wechselnd 3.5 mph - N/A   Teils Wolkig
11:20 AM 78.8 °F - 59.0 °F 51% 30.18 inch 6.2 mi Süd 3.5 mph - N/A   Teils Wolkig
12:00 PM 79 °F - 59 °F 40% 30.17 inch 19 mi Südost 6.7 mph - -   Teils Wolkig
12:20 PM 80.6 °F 81.5 °F 60.8 °F 51% 30.15 inch 6.2 mi Süd 4.6 mph - N/A   Teils Wolkig
1:00 PM 81 °F - 60 °F 38% 30.16 inch 19 mi Süd-Südost 6.7 mph - -   Teils Wolkig
1:20 PM 82.4 °F 82.5 °F 59.0 °F 45% 30.15 inch 6.2 mi Süd-Südost 6.9 mph - N/A   Teils Wolkig
2:20 PM 82.4 °F 82.5 °F 59.0 °F 45% 30.12 inch 6.2 mi Süd-Südost 5.8 mph - N/A   Teils Wolkig
3:00 PM 83 °F - 56 °F 30% 30.12 inch 19 mi Süd-Südost 4.5 mph - -   Teils Wolkig
3:20 PM 84.2 °F 83.0 °F 55.4 °F 37% 30.09 inch 6.2 mi Süd 8.1 mph - N/A   Teils Wolkig
4:00 PM 84 °F - 56 °F 27% 30.10 inch 19 mi Süd-Südwest 6.7 mph - -   Teils Wolkig
4:20 PM 84.2 °F 83.0 °F 55.4 °F 37% 30.09 inch 6.2 mi Südwest 5.8 mph - N/A   Teils Wolkig
5:20 PM 84.2 °F 83.0 °F 55.4 °F 37% 30.06 inch 6.2 mi Süd 3.5 mph - N/A   Teils Wolkig
6:20 PM 86.0 °F 84.5 °F 55.4 °F 35% 30.04 inch 6.2 mi Süd 5.8 mph - N/A   Teils Wolkig
7:00 PM 85 °F - 55 °F 26% 30.05 inch 25 mi 4.5 mph - -   Teils Wolkig
7:20 PM 84.2 °F 83.0 °F 55.4 °F 37% 30.04 inch 6.2 mi Wechselnd 3.5 mph - N/A   Teils Wolkig
8:20 PM 84.2 °F 83.5 °F 57.2 °F 40% 30.04 inch 6.2 mi Wechselnd 1.2 mph - N/A   Teils Wolkig
9:00 PM 82 °F - 58 °F 33% 30.04 inch 25 mi Nord-Nordost 2.2 mph - -   Heiter
9:20 PM 78.8 °F - 59.0 °F 51% 30.04 inch 6.2 mi Ost-Südost 2.3 mph - N/A   Teils Wolkig
10:00 PM 77 °F - 59 °F 43% 30.04 inch 25 mi Südost 2.2 mph - -   Heiter
10:20 PM 73.4 °F - 59.0 °F 61% 30.04 inch 6.2 mi Süd-Südost 3.5 mph - N/A   Teils Wolkig
11:20 PM 71.6 °F - 60.8 °F 69% 30.04 inch 6.2 mi Süd 2.3 mph - N/A   Teils Wolkig